Home   Weather   Changsha   Past weeks

Flag for China Past Weather in Changsha, Hunan, China — Yesterday and Last 2 Weeks

Now
57 °F

Clear.


Feels Like: 57 °F
Forecast: 49 / 65 °F
Wind: 1 mph from North

Location: Changsha

Current Time: Feb 28, 2017 at 12:09:18 am

Latest Report: Feb 27, 2017 at 11:00 pm


Visibility: 4 mi

Pressure: 30.24 "Hg

Humidity: 67%

Dew Point: 46 °F

Location of ChangshaLocation

Past Weather in Changsha — Graph

°F

Changsha Temperature Yesterday

Maximum temperature yesterday: 66 °F (at 1:00 pm)
Minimum temperature yesterday: 46 °F (at 6:00 am)
Average temperature yesterday: 57 °F

High & Low Weather Summary for the Past Weeks

 TemperatureHumidityPressure
High79 °F (Feb 16, 4:00 pm)93% (Feb 13, 3:00 am)30.45 "Hg (Feb 13, 3:00 am)
Low30 °F (Feb 13, 7:00 am)13% (Feb 13, 3:00 pm)29.74 "Hg (Feb 19, 5:00 pm)
Average53 °F66%30.21 "Hg
* Reported Feb 12 11:00 pm — Feb 27 11:00 pm, Changsha, Weather by CustomWeather, © 2017

Note: Actual official high and low records may vary slightly from our data, if they occured in-between our weather recording intervals... More about our weather records

Advertising

Changsha Weather History for the Previous 24 Hours

Scroll right to see more
 ConditionsComfort  
Time TempWeatherWind HumidityBarometerVisibility
11:00 pm
Mon, Feb 27
57 °FClear.1 mph67%30.24 "Hg4 mi
10:00 pm57 °FClear.1 mph67%30.24 "Hg5 mi
9:00 pm59 °FClear.1 mph63%30.21 "Hg5 mi
8:00 pm59 °FClear.3 mph55%30.18 "Hg10 mi
7:00 pm63 °FClear.1 mph42%30.18 "Hg10 mi
6:00 pm64 °FPassing clouds.3 mph32%30.18 "HgN/A
5:00 pm64 °FSunny.1 mph28%30.18 "Hg10 mi
4:00 pm66 °FSunny.1 mph28%30.18 "Hg10 mi
3:00 pm66 °FPassing clouds.3 mph30%30.21 "HgN/A
2:00 pm66 °FSunny.1 mph28%30.21 "Hg10 mi
1:00 pm66 °FSunny.1 mph35%30.27 "Hg10 mi
12:00 pm63 °FSunny.1 mph42%30.30 "Hg10 mi
11:00 am59 °FClear.1 mph55%30.33 "Hg5 mi
10:00 am55 °FClear.1 mph59%30.33 "Hg5 mi
9:00 am50 °FClear.1 mph71%30.33 "Hg4 mi
8:00 am46 °FClear.1 mph87%30.30 "Hg4 mi
7:00 am46 °FFog.1 mph82%30.30 "Hg3 mi
6:00 am46 °FFog.6 mph82%30.27 "Hg3 mi
5:00 am48 °FClear.3 mph82%30.27 "Hg4 mi
4:00 am50 °FClear.1 mph76%30.27 "Hg4 mi
3:00 am52 °FClear.1 mph67%30.30 "Hg4 mi
2:00 am52 °FClear.1 mph72%30.30 "Hg4 mi
1:00 am54 °FClear.3 mph58%30.30 "Hg5 mi
12:00 am52 °FClear.3 mph67%30.30 "Hg5 mi
Weather by CustomWeather, © 2017

See weather overviewHow to use our weather pages